Central Wisconsin Airport
KCWA : now visible

Airfield :











YOU CAN JOIN US ON...

 
LOGIN :

Register | Disclaimer

   EN    FR    IT 

 









Legend :    VFR   Marginal VFR   IFR   Intensive IFR   Very Intensive IFR
Visi :
Ceiling :
>= 8 km
>= 3000ft
5 to 8 km
1000 to 3000 ft
1500m to 5 km
500 to 1000 ft
800 to 1500m
200 to 500 ft
< 800m
< 200 ft
Symbols :   Thunderstorms  Fog  Heavy snow  Heavy precipitations  Wind > 20 kt






- Airport Elevation : 1277 ft


KCWA - Central Wisconsin

CURRENT METAR :
  • 230047Z 27007KT 10SM BKN090 M13/M19 A3019

EXPIRED METARs :
  • 222347Z 25006KT 10SM CLR M13/M21 A3017
  • 222247Z 27008KT 10SM FEW150 M12/M21 A3016
  • 222153Z 28009G15KT 10SM FEW150 M12/M20 A3015

TAF KCWA
Valid from the 23 at 00:00 until the 24 at 00:00 UTC


222321Z 2300/2324 27005KT P6SM BKN090
FM230800 25003KT P6SM SCT100
FM231500 21005KT P6SM SCT200
FM232200 18003KT P6SM SCT080 BKN120
KZMP FIR / North America



MET'MAP, your aeronautical weather chart ! - Copyright ORBIFLY December 2007 - Disclaimer

ORBIFLY MET'MAP TEAM :

Programming & Development : Alexandra Zaïnal
Concept & original design : Baudouin d'Aumeries
Assistance for programming : Marc-Olivier Méhu
Technical & hardware support : Manuel Goepfert

Contact : metmap@orbifly.com




SOURCES & CREDITS :

   NOAA       Earth
Advisory